Location: Góry Miechowskie
(50.3599°N, 20.1803°E)
Time: 22:25:36
(UTC+00:00)

Cosmos 1869 - Pass Details

Date: 20 September 2024
Orbit: 484 x 518 km, 82.5° (Epoch: 06 October)

Event Time Altitude Azimuth Distance (km) Brightness Sun altitude
Exits shadow 01:32:49 14° 340° (NNW) 1,478 5.7 -26.0°
Drops below altitude 10° 01:33:35 10° 347° (NNW) 1,725 6.1 -25.9°
Sets 01:35:58 0° 1° (N) 2,607 7.3 -25.6°
